Regional Weather Roundup
Issued by NWS Charleston, WV

Home | Current Version | Previous Version | Graphics & Text | Print | Product List | Glossary On
Versions: 1 2 3 4 5 6 7 8 9 10 11 12 13 14 15 16 17 18 19 20 21 22 23 24 25 26 27 28 29
000
ASUS41 KRLX 240610
RWRRLX
West Virginia Regional Weather Roundup
National Weather Service Charleston WV
200 AM EDT FRI OCT 24 2014

Note: "fair" indicates few or no clouds below 12,000 feet with no
significant weather and/or obstructions to visibility.

WVZ003-240700-
Northern Panhandle of West Virginia

CITY           SKY/WX    TMP DP  RH WIND       PRES   REMARKS
WHEELING       CLEAR     43  40  89 CALM      30.09S
$$

WVZ009-240700-
Northwest West Virginia

CITY           SKY/WX    TMP DP  RH WIND       PRES   REMARKS
PARKERSBURG    PTCLDY    38  35  89 CALM      30.13F
$$

WVZ006-240700-
Western West Virginia

CITY           SKY/WX    TMP DP  RH WIND       PRES   REMARKS
HUNTINGTON     MOCLDY    41  40  96 CALM      30.11S FOG
$$

WVZ015-240700-
West Central West Virginia

CITY           SKY/WX    TMP DP  RH WIND       PRES   REMARKS
CHARLESTON     FOG       40  39  97 CALM      30.11S VSB 1
$$

WVZ022-031-240700-
North Central West Virginia

CITY           SKY/WX    TMP DP  RH WIND       PRES   REMARKS
CLARKSBURG     CLEAR     41  40  96 CALM      30.09S FOG
MORGANTOWN     CLEAR     47  41  80 CALM      30.09S
$$

WVZ025-035-042-045-240700-
Southern West Virginia

CITY           SKY/WX    TMP DP  RH WIND       PRES   REMARKS
BECKLEY        CLEAR     35  33  92 SW5       30.11S FOG
LOGAN          FOG       41  41 100 CALM      30.11S VSB<1/4
BLUEFIELD      CLEAR     40  36  86 W5        30.11S FOG
LEWISBURG      PTCLDY    40  38  91 CALM      30.08F
$$

WVZ047-240700-
Northern Mountains of West Virginia

CITY           SKY/WX    TMP DP  RH WIND       PRES   REMARKS
ELKINS         MOCLDY    40  40 100 CALM      30.09F FOG
$$

WVZ052-240700-
Eastern Panhandle of West Virginia

CITY           SKY/WX    TMP DP  RH WIND       PRES   REMARKS
MARTINSBURG    PTCLDY    55  39  54 NW15      29.97F
PETERSBURG     CLEAR     44  40  86 CALM      30.04S
$$



USA.gov is the U.S. government's official web portal to all federal, state and local government web resources and services.